Location: Newark
(59.4564°N, 26.6917°E)
Time: 05:35:23
(UTC+00:00)

SR - Pass Details

Date: 30 November 2019
Orbit: 573 x 882 km, 66.7° (Epoch: 07 December)

Event Time Altitude Azimuth Distance (km) Brightness Sun altitude
Rises 13:15:50 0° 260° (W) 3,372 ? -0.3°
Reaches altitude 10° 13:18:20 10° 266° (W) 2,474 ? -0.5°
Maximum altitude 13:23:56 49° 341° (NNW) 1,116 ? -1.0°
Drops below altitude 10° 13:29:44 10° 57° (ENE) 2,553 ? -1.5°
Enters shadow 13:32:02 - 62° (ENE) 3,375 ? -1.7°
Sets 13:32:20 0° 62° (ENE) 3,489 - -1.8°
